Station Historical Data
Daily Summary for January 29, 2018 Units:  English    Metric   Both
« Previous Day
Next Day »
Daily Weekly Monthly Yearly Custom
  High: Low: Average:
Temperature: TemperatureF °F 22.0 °F 29.2 °F
Dew Point: DewpointF °F 19.3 °F 23.4 °F
Humidity: Humidity% 71% 78%
Wind Speed: WindSpeedMPHmph 0.0mph 4.9mph
Wind Gust: WindSpeedGustMPHmph - -
Wind- - NE
Pressure: PressureIn in 30.10 in -
Precipitation: 0.00 in    
Historical Graphs
 
 
Tabular Data for January 29, 2018
Time Temperature Dew Point Pressure Wind Wind Speed Wind Gust Humidity Rainfall Rate (Hourly)
TemperatureF °F DewpointF °F PressureIn in Calm     Humidity% HourlyPrecipIn in
00:04 29.2 °F 23.5 °F 30.34 in NE 3.0 mph 4.0 mph 79% 0.00 in
00:09 29.3 °F 23.3 °F 30.34 in NNE 4.0 mph 5.0 mph 78% 0.00 in
00:14 29.2 °F 23.2 °F 30.35 in NNE 3.0 mph 5.0 mph 78% 0.00 in
00:19 29.3 °F 23.3 °F 30.35 in NNE 4.0 mph 7.0 mph 78% 0.00 in
00:24 29.4 °F 23.4 °F 30.35 in NE 2.0 mph 6.0 mph 78% 0.00 in
00:29 29.5 °F 23.5 °F 30.35 in NNE 4.0 mph 5.0 mph 78% 0.00 in
00:34 29.6 °F 23.6 °F 30.35 in NE 5.0 mph 5.0 mph 78% 0.00 in
00:39 29.6 °F 23.3 °F 30.35 in NE 3.0 mph 6.0 mph 77% 0.00 in
00:44 29.6 °F 23.3 °F 30.35 in NE 3.0 mph 7.0 mph 77% 0.00 in
00:49 29.6 °F 23.3 °F 30.35 in NE 3.0 mph 8.0 mph 77% 0.00 in
00:54 29.6 °F 23.3 °F 30.34 in NE 3.0 mph 9.0 mph 77% 0.00 in
00:59 29.5 °F 23.2 °F 30.34 in NE 4.0 mph 6.0 mph 77% 0.00 in
01:04 29.5 °F 23.2 °F 30.34 in NE 2.0 mph 4.0 mph 77% 0.00 in
01:09 29.4 °F 23.1 °F 30.33 in NE 3.0 mph 5.0 mph 77% 0.00 in
01:14 29.3 °F 23.0 °F 30.34 in NE 3.0 mph 5.0 mph 77% 0.00 in
01:19 29.3 °F 23.0 °F 30.34 in NE 3.0 mph 5.0 mph 77% 0.00 in
01:24 29.3 °F 22.7 °F 30.34 in Calm   7.0 mph 76% 0.00 in
01:29 29.3 °F 22.7 °F 30.34 in NE 4.0 mph 8.0 mph 76% 0.00 in
01:34 29.3 °F 22.7 °F 30.34 in NE 3.0 mph 5.0 mph 76% 0.00 in
01:39 29.3 °F 22.7 °F 30.34 in North 4.0 mph 6.0 mph 76% 0.00 in
01:44 29.3 °F 22.4 °F 30.34 in NE 3.0 mph 6.0 mph 75% 0.00 in
01:49 29.3 °F 22.4 °F 30.34 in NE 3.0 mph 9.0 mph 75% 0.00 in
01:54 29.3 °F 22.4 °F 30.35 in NE 2.0 mph 4.0 mph 75% 0.00 in
01:59 29.3 °F 22.4 °F 30.35 in ENE 5.0 mph 7.0 mph 75% 0.00 in
02:04 29.3 °F 22.4 °F 30.35 in NE 4.0 mph 7.0 mph 75% 0.00 in
02:09 29.3 °F 22.4 °F 30.34 in ENE 3.0 mph 5.0 mph 75% 0.00 in
02:14 29.3 °F 22.0 °F 30.35 in ENE 4.0 mph 8.0 mph 74% 0.00 in
02:19 29.2 °F 21.9 °F 30.34 in ENE 3.0 mph 8.0 mph 74% 0.00 in
02:24 29.2 °F 21.9 °F 30.34 in ENE 3.0 mph 7.0 mph 74% 0.00 in
02:29 29.2 °F 21.9 °F 30.34 in ENE 2.0 mph 6.0 mph 74% 0.00 in
02:34 29.1 °F 21.8 °F 30.34 in NE 3.0 mph 7.0 mph 74% 0.00 in
02:39 29.1 °F 21.8 °F 30.34 in NE 2.0 mph 5.0 mph 74% 0.00 in
02:44 29.1 °F 22.2 °F 30.34 in ENE 1.0 mph 5.0 mph 75% 0.00 in
02:49 29.1 °F 22.2 °F 30.33 in NE 2.0 mph 5.0 mph 75% 0.00 in
02:54 29.0 °F 22.1 °F 30.33 in ENE 2.0 mph 4.0 mph 75% 0.00 in
02:59 29.0 °F 22.1 °F 30.33 in NNE 3.0 mph 3.0 mph 75% 0.00 in
03:04 28.9 °F 22.0 °F 30.33 in NE 3.0 mph 5.0 mph 75% 0.00 in
03:09 28.9 °F 22.0 °F 30.33 in NE 2.0 mph 5.0 mph 75% 0.00 in
03:14 28.9 °F 22.0 °F 30.33 in NE 2.0 mph 5.0 mph 75% 0.00 in
03:19 28.8 °F 21.9 °F 30.33 in NE 2.0 mph 5.0 mph 75% 0.00 in
03:24 28.8 °F 21.9 °F 30.33 in NE 3.0 mph 5.0 mph 75% 0.00 in
03:29 28.9 °F 22.0 °F 30.32 in NE 2.0 mph 4.0 mph 75% 0.00 in
03:34 28.8 °F 21.9 °F 30.33 in ENE 1.0 mph 4.0 mph 75% 0.00 in
03:40 28.8 °F 22.2 °F 30.33 in NE 2.0 mph 4.0 mph 76% 0.00 in
03:44 28.8 °F 22.2 °F 30.33 in NE 2.0 mph 4.0 mph 76% 0.00 in
03:54 28.8 °F 22.2 °F 30.32 in NE 2.0 mph 4.0 mph 76% 0.00 in
03:59 28.7 °F 22.1 °F 30.32 in NE 2.0 mph 4.0 mph 76% 0.00 in
04:04 28.7 °F 22.1 °F 30.32 in NE 2.0 mph 4.0 mph 76% 0.00 in
04:09 28.7 °F 22.1 °F 30.32 in NE 2.0 mph 4.0 mph 76% 0.00 in
04:14 28.8 °F 22.2 °F 30.32 in NE 2.0 mph 3.0 mph 76% 0.00 in
04:20 28.8 °F 22.2 °F 30.32 in NE 2.0 mph 3.0 mph 76% 0.00 in
04:29 28.9 °F 22.3 °F 30.32 in NE 2.0 mph 4.0 mph 76% 0.00 in
04:34 29.0 °F 22.4 °F 30.32 in NE 1.0 mph 5.0 mph 76% 0.00 in
04:39 29.0 °F 22.4 °F 30.32 in NE 2.0 mph 3.0 mph 76% 0.00 in
04:44 29.0 °F 22.4 °F 30.32 in NE 2.0 mph 3.0 mph 76% 0.00 in
04:49 29.1 °F 22.5 °F 30.32 in NNE 3.0 mph 4.0 mph 76% 0.00 in
04:54 29.1 °F 22.5 °F 30.32 in NE 2.0 mph 6.0 mph 76% 0.00 in
04:59 29.1 °F 22.5 °F 30.31 in NE 2.0 mph 6.0 mph 76% 0.00 in
05:04 29.1 °F 22.5 °F 30.31 in NE 2.0 mph 4.0 mph 76% 0.00 in
05:09 29.1 °F 22.5 °F 30.31 in NE 2.0 mph 5.0 mph 76% 0.00 in
05:14 29.1 °F 22.5 °F 30.31 in NNE 2.0 mph 5.0 mph 76% 0.00 in
05:19 29.1 °F 22.5 °F 30.31 in NNE 2.0 mph 5.0 mph 76% 0.00 in
05:24 29.1 °F 22.5 °F 30.31 in NNE 2.0 mph 3.0 mph 76% 0.00 in
05:29 29.1 °F 22.5 °F 30.31 in NNE 1.0 mph 4.0 mph 76% 0.00 in
05:34 29.1 °F 22.5 °F 30.31 in NNE 4.0 mph 4.0 mph 76% 0.00 in
05:39 29.1 °F 22.5 °F 30.31 in NNE 2.0 mph 5.0 mph 76% 0.00 in
05:44 29.1 °F 22.5 °F 30.30 in NNE 3.0 mph 5.0 mph 76% 0.00 in
05:49 29.1 °F 22.5 °F 30.30 in ENE 2.0 mph 5.0 mph 76% 0.00 in
05:54 29.2 °F 22.6 °F 30.30 in NE 2.0 mph 5.0 mph 76% 0.00 in
05:59 29.1 °F 22.5 °F 30.30 in NE 3.0 mph 7.0 mph 76% 0.00 in
06:04 29.1 °F 22.5 °F 30.30 in NE 3.0 mph 7.0 mph 76% 0.00 in
06:09 29.2 °F 22.6 °F 30.30 in NE 3.0 mph 6.0 mph 76% 0.00 in
06:14 29.2 °F 22.6 °F 30.30 in NE 4.0 mph 8.0 mph 76% 0.00 in
06:19 29.2 °F 22.6 °F 30.30 in NE 4.0 mph 8.0 mph 76% 0.00 in
06:24 29.2 °F 22.6 °F 30.30 in NE 3.0 mph 7.0 mph 76% 0.00 in
06:29 29.2 °F 22.6 °F 30.30 in NE 3.0 mph 7.0 mph 76% 0.00 in
06:34 29.1 °F 22.5 °F 30.30 in ENE 3.0 mph 6.0 mph 76% 0.00 in
06:39 29.0 °F 22.4 °F 30.30 in ENE 2.0 mph 7.0 mph 76% 0.00 in
06:44 29.0 °F 22.4 °F 30.30 in NE 1.0 mph 7.0 mph 76% 0.00 in
06:49 29.0 °F 22.4 °F 30.30 in NE 2.0 mph 5.0 mph 76% 0.00 in
06:54 29.0 °F 22.7 °F 30.31 in NE 2.0 mph 6.0 mph 77% 0.00 in
06:59 29.1 °F 22.8 °F 30.31 in NE 3.0 mph 5.0 mph 77% 0.00 in
07:04 29.1 °F 22.8 °F 30.30 in ENE 2.0 mph 5.0 mph 77% 0.00 in
07:09 29.1 °F 22.5 °F 30.30 in NE 2.0 mph 7.0 mph 76% 0.00 in
07:14 29.2 °F 22.6 °F 30.30 in ENE 3.0 mph 7.0 mph 76% 0.00 in
07:19 29.2 °F 22.6 °F 30.30 in ENE 3.0 mph 6.0 mph 76% 0.00 in
07:24 29.2 °F 22.6 °F 30.30 in ENE 3.0 mph 8.0 mph 76% 0.00 in
07:29 29.2 °F 22.9 °F 30.30 in ENE 3.0 mph 8.0 mph 77% 0.00 in
07:34 29.1 °F 22.8 °F 30.29 in East 3.0 mph 7.0 mph 77% 0.00 in
07:39 29.1 °F 22.8 °F 30.29 in East 3.0 mph 7.0 mph 77% 0.00 in
07:44 29.1 °F 22.8 °F 30.29 in ENE 2.0 mph 7.0 mph 77% 0.00 in
07:49 29.2 °F 22.9 °F 30.30 in ENE 2.0 mph 6.0 mph 77% 0.00 in
07:54 29.2 °F 22.9 °F 30.30 in East 1.0 mph 7.0 mph 77% 0.00 in
07:59 29.2 °F 22.9 °F 30.30 in East 3.0 mph 5.0 mph 77% 0.00 in
08:04 29.2 °F 22.9 °F 30.30 in East 1.0 mph 7.0 mph 77% 0.00 in
08:09 29.3 °F 23.0 °F 30.30 in ENE 4.0 mph 9.0 mph 77% 0.00 in
08:14 29.3 °F 23.0 °F 30.29 in ENE 2.0 mph 8.0 mph 77% 0.00 in
08:19 29.5 °F 23.2 °F 30.29 in ENE 3.0 mph 8.0 mph 77% 0.00 in
08:24 29.5 °F 23.2 °F 30.29 in ENE 3.0 mph 8.0 mph 77% 0.00 in
08:29 29.7 °F 23.7 °F 30.29 in ENE 3.0 mph 8.0 mph 78% 0.00 in
08:34 29.8 °F 23.8 °F 30.29 in ENE 2.0 mph 6.0 mph 78% 0.00 in
08:39 29.9 °F 23.6 °F 30.29 in ENE 2.0 mph 9.0 mph 77% 0.00 in
08:44 29.9 °F 23.6 °F 30.29 in East 3.0 mph 7.0 mph 77% 0.00 in
08:49 30.0 °F 24.0 °F 30.29 in ENE 3.0 mph 8.0 mph 78% 0.00 in
08:54 30.0 °F 24.0 °F 30.29 in ENE 5.0 mph 11.0 mph 78% 0.00 in
08:59 30.0 °F 24.0 °F 30.29 in ESE 5.0 mph 9.0 mph 78% 0.00 in
09:04 30.1 °F 24.1 °F 30.29 in NE 2.0 mph 8.0 mph 78% 0.00 in
09:09 30.1 °F 24.1 °F 30.29 in ESE 8.0 mph 10.0 mph 78% 0.00 in
09:14 30.1 °F 24.1 °F 30.29 in ENE 7.0 mph 10.0 mph 78% 0.00 in
09:19 30.1 °F 24.1 °F 30.28 in ENE 5.0 mph 11.0 mph 78% 0.00 in
09:24 30.1 °F 24.4 °F 30.28 in ENE 5.0 mph 11.0 mph 79% 0.00 in
09:29 30.1 °F 24.4 °F 30.28 in ENE 5.0 mph 11.0 mph 79% 0.00 in
09:34 30.3 °F 24.6 °F 30.28 in ENE 5.0 mph 11.0 mph 79% 0.00 in
09:39 30.5 °F 24.8 °F 30.28 in East 4.0 mph 11.0 mph 79% 0.00 in
09:44 30.7 °F 25.0 °F 30.28 in ENE 5.0 mph 9.0 mph 79% 0.00 in
09:49 30.8 °F 24.7 °F 30.28 in ENE 3.0 mph 8.0 mph 78% 0.00 in
09:54 30.8 °F 24.7 °F 30.28 in ENE 4.0 mph 11.0 mph 78% 0.00 in
09:59 30.8 °F 24.7 °F 30.28 in ENE 7.0 mph 11.0 mph 78% 0.00 in
10:04 30.9 °F 24.8 °F 30.28 in NE 5.0 mph 7.0 mph 78% 0.00 in
10:09 30.9 °F 24.8 °F 30.28 in ENE 4.0 mph 9.0 mph 78% 0.00 in
10:14 30.9 °F 24.8 °F 30.28 in ENE 4.0 mph 10.0 mph 78% 0.00 in
10:19 31.1 °F 25.0 °F 30.28 in ENE 4.0 mph 11.0 mph 78% 0.00 in
10:24 31.3 °F 25.2 °F 30.28 in ENE 4.0 mph 13.0 mph 78% 0.00 in
10:29 31.4 °F 25.0 °F 30.28 in ENE 4.0 mph 13.0 mph 77% 0.00 in
10:34 31.5 °F 25.1 °F 30.28 in ENE 4.0 mph 10.0 mph 77% 0.00 in
10:39 31.6 °F 25.2 °F 30.28 in ENE 5.0 mph 10.0 mph 77% 0.00 in
10:44 31.8 °F 25.4 °F 30.28 in East 1.0 mph 9.0 mph 77% 0.00 in
10:49 31.9 °F 25.5 °F 30.27 in East 6.0 mph 10.0 mph 77% 0.00 in
10:54 32.1 °F 25.7 °F 30.27 in ESE 5.0 mph 11.0 mph 77% 0.00 in
10:59 32.5 °F 26.1 °F 30.27 in NNE 3.0 mph 10.0 mph 77% 0.00 in
11:04 33.1 °F 26.4 °F 30.26 in ENE 4.0 mph 10.0 mph 76% 0.00 in
11:09 33.4 °F 26.3 °F 30.26 in East 6.0 mph 11.0 mph 75% 0.00 in
11:14 33.5 °F 26.4 °F 30.26 in NE 3.0 mph 9.0 mph 75% 0.00 in
11:19 34.1 °F 26.7 °F 30.26 in NE 7.0 mph 9.0 mph 74% 0.00 in
11:24 34.3 °F 26.9 °F 30.25 in NE 5.0 mph 10.0 mph 74% 0.00 in
11:29 34.8 °F 27.4 °F 30.25 in ENE 5.0 mph 11.0 mph 74% 0.00 in
11:34 35.0 °F 27.2 °F 30.24 in ENE 5.0 mph 11.0 mph 73% 0.00 in
11:39 35.1 °F 27.3 °F 30.24 in ENE 5.0 mph 11.0 mph 73% 0.00 in
11:44 34.6 °F 26.5 °F 30.24 in NE 4.0 mph 10.0 mph 72% 0.00 in
11:49 34.6 °F 26.8 °F 30.24 in ENE 2.0 mph 11.0 mph 73% 0.00 in
11:54 34.9 °F 26.8 °F 30.23 in NE 7.0 mph 11.0 mph 72% 0.00 in
11:59 35.0 °F 27.2 °F 30.23 in ENE 4.0 mph 11.0 mph 73% 0.00 in
12:04 34.6 °F 26.5 °F 30.23 in ENE 5.0 mph 10.0 mph 72% 0.00 in
12:09 34.1 °F 26.0 °F 30.23 in NE 6.0 mph 13.0 mph 72% 0.00 in
12:14 34.0 °F 26.3 °F 30.22 in NE 4.0 mph 13.0 mph 73% 0.00 in
12:19 34.0 °F 26.3 °F 30.22 in NE 8.0 mph 12.0 mph 73% 0.00 in
12:24 34.1 °F 26.3 °F 30.22 in NE 6.0 mph 12.0 mph 73% 0.00 in
12:29 34.2 °F 26.4 °F 30.21 in ENE 3.0 mph 12.0 mph 73% 0.00 in
12:34 34.2 °F 26.4 °F 30.21 in ENE 6.0 mph 12.0 mph 73% 0.00 in
12:39 34.1 °F 26.3 °F 30.21 in ENE 6.0 mph 10.0 mph 73% 0.00 in
12:44 34.3 °F 26.5 °F 30.21 in NE 6.0 mph 13.0 mph 73% 0.00 in
12:49 34.1 °F 26.3 °F 30.20 in NE 7.0 mph 13.0 mph 73% 0.00 in
12:54 34.3 °F 26.5 °F 30.20 in NE 3.0 mph 15.0 mph 73% 0.00 in
12:59 34.6 °F 26.8 °F 30.19 in ENE 7.0 mph 11.0 mph 73% 0.00 in
13:04 34.6 °F 26.5 °F 30.19 in NE 6.0 mph 15.0 mph 72% 0.00 in
13:09 34.6 °F 26.5 °F 30.19 in NE 7.0 mph 15.0 mph 72% 0.00 in
13:14 35.2 °F 27.4 °F 30.19 in East 6.0 mph 12.0 mph 73% 0.00 in
13:19 36.1 °F 27.6 °F 30.19 in NE 6.0 mph 11.0 mph 71% 0.00 in
13:24 35.5 °F 27.0 °F 30.18 in NE 4.0 mph 15.0 mph 71% 0.00 in
13:29 35.1 °F 27.0 °F 30.18 in ENE 8.0 mph 13.0 mph 72% 0.00 in
13:34 34.8 °F 26.7 °F 30.18 in NE 7.0 mph 16.0 mph 72% 0.00 in
13:39 35.0 °F 27.2 °F 30.18 in NE 7.0 mph 16.0 mph 73% 0.00 in
13:44 34.9 °F 26.8 °F 30.17 in NE 8.0 mph 14.0 mph 72% 0.00 in
13:49 34.5 °F 26.4 °F 30.17 in NE 8.0 mph 17.0 mph 72% 0.00 in
13:54 34.6 °F 26.5 °F 30.17 in NE 7.0 mph 17.0 mph 72% 0.00 in
13:59 35.0 °F 27.2 °F 30.17 in NE 7.0 mph 14.0 mph 73% 0.00 in
14:04 34.2 °F 26.1 °F 30.16 in NE 7.0 mph 14.0 mph 72% 0.00 in
14:09 34.9 °F 27.1 °F 30.16 in NE 7.0 mph 14.0 mph 73% 0.00 in
14:14 35.2 °F 27.1 °F 30.16 in NE 8.0 mph 18.0 mph 72% 0.00 in
14:19 34.6 °F 26.5 °F 30.16 in NE 8.0 mph 17.0 mph 72% 0.00 in
14:24 34.1 °F 26.3 °F 30.16 in NNE 2.0 mph 11.0 mph 73% 0.00 in
14:29 34.0 °F 26.3 °F 30.16 in NNE 5.0 mph 11.0 mph 73% 0.00 in
14:34 33.5 °F 25.8 °F 30.16 in NNE 6.0 mph 13.0 mph 73% 0.00 in
14:39 33.2 °F 25.8 °F 30.16 in NE 6.0 mph 13.0 mph 74% 0.00 in
14:44 32.8 °F 25.7 °F 30.16 in NE 6.0 mph 13.0 mph 75% 0.00 in
14:49 32.7 °F 26.0 °F 30.16 in NNE 6.0 mph 12.0 mph 76% 0.00 in
14:54 32.6 °F 25.9 °F 30.16 in NNE 6.0 mph 11.0 mph 76% 0.00 in
14:59 32.6 °F 25.9 °F 30.16 in NE 7.0 mph 15.0 mph 76% 0.00 in
15:04 33.0 °F 26.3 °F 30.16 in NE 9.0 mph 11.0 mph 76% 0.00 in
15:09 32.1 °F 25.4 °F 30.16 in NNE 5.0 mph 15.0 mph 76% 0.00 in
15:14 31.7 °F 25.3 °F 30.16 in NE 5.0 mph 17.0 mph 77% 0.00 in
15:19 31.6 °F 25.2 °F 30.15 in NE 7.0 mph 13.0 mph 77% 0.00 in
15:24 31.6 °F 25.5 °F 30.15 in NE 6.0 mph 15.0 mph 78% 0.00 in
15:29 31.7 °F 25.3 °F 30.15 in NE 7.0 mph 12.0 mph 77% 0.00 in
15:34 31.1 °F 25.0 °F 30.15 in NNE 7.0 mph 13.0 mph 78% 0.00 in
15:39 30.9 °F 24.8 °F 30.15 in NNE 11.0 mph 15.0 mph 78% 0.00 in
15:44 30.5 °F 24.5 °F 30.15 in NE 8.0 mph 16.0 mph 78% 0.00 in
15:49 30.5 °F 24.8 °F 30.15 in NE 9.0 mph 19.0 mph 79% 0.00 in
15:54 30.1 °F 24.4 °F 30.15 in NE 9.0 mph 19.0 mph 79% 0.00 in
15:59 29.9 °F 24.2 °F 30.15 in NE 9.0 mph 17.0 mph 79% 0.00 in
16:04 29.6 °F 24.2 °F 30.14 in NE 9.0 mph 22.0 mph 80% 0.00 in
16:09 29.6 °F 24.2 °F 30.14 in NE 9.0 mph 22.0 mph 80% 0.00 in
16:14 29.6 °F 24.2 °F 30.14 in NNE 7.0 mph 15.0 mph 80% 0.00 in
16:19 29.8 °F 24.4 °F 30.14 in NE 7.0 mph 12.0 mph 80% 0.00 in
16:24 29.6 °F 24.2 °F 30.14 in NE 9.0 mph 16.0 mph 80% 0.00 in
16:29 29.3 °F 23.9 °F 30.14 in NNE 8.0 mph 13.0 mph 80% 0.00 in
16:34 29.1 °F 23.7 °F 30.14 in NE 7.0 mph 17.0 mph 80% 0.00 in
16:39 28.9 °F 23.5 °F 30.14 in NE 9.0 mph 17.0 mph 80% 0.00 in
16:44 28.7 °F 23.3 °F 30.14 in NE 6.0 mph 17.0 mph 80% 0.00 in
16:49 28.7 °F 23.6 °F 30.14 in NE 9.0 mph 14.0 mph 81% 0.00 in
16:54 28.6 °F 23.5 °F 30.14 in NE 9.0 mph 14.0 mph 81% 0.00 in
16:59 28.6 °F 23.5 °F 30.14 in NE 8.0 mph 16.0 mph 81% 0.00 in
17:04 28.5 °F 23.4 °F 30.14 in NE 7.0 mph 16.0 mph 81% 0.00 in
17:09 28.5 °F 23.4 °F 30.14 in NE 7.0 mph 15.0 mph 81% 0.00 in
17:14 28.5 °F 23.4 °F 30.15 in NNE 9.0 mph 15.0 mph 81% 0.00 in
17:19 28.4 °F 23.3 °F 30.15 in NNE 5.0 mph 14.0 mph 81% 0.00 in
17:24 28.3 °F 23.2 °F 30.15 in NE 8.0 mph 15.0 mph 81% 0.00 in
17:29 28.2 °F 23.1 °F 30.15 in NE 9.0 mph 18.0 mph 81% 0.00 in
17:34 28.2 °F 23.1 °F 30.15 in NE 9.0 mph 18.0 mph 81% 0.00 in
17:39 28.1 °F 23.0 °F 30.15 in NE 10.0 mph 15.0 mph 81% 0.00 in
17:44 28.1 °F 23.0 °F 30.15 in NNE 6.0 mph 14.0 mph 81% 0.00 in
17:49 28.1 °F 23.0 °F 30.14 in ENE 7.0 mph 14.0 mph 81% 0.00 in
17:54 28.0 °F 22.9 °F 30.14 in NE 9.0 mph 15.0 mph 81% 0.00 in
17:59 28.0 °F 22.9 °F 30.14 in NE 8.0 mph 22.0 mph 81% 0.00 in
18:04 27.8 °F 22.7 °F 30.14 in NE 9.0 mph 22.0 mph 81% 0.00 in
18:09 27.8 °F 22.7 °F 30.15 in NE 8.0 mph 17.0 mph 81% 0.00 in
18:14 27.8 °F 22.7 °F 30.14 in ENE 13.0 mph 18.0 mph 81% 0.00 in
18:19 27.7 °F 22.6 °F 30.14 in NE 4.0 mph 15.0 mph 81% 0.00 in
18:24 27.7 °F 22.6 °F 30.14 in NE 4.0 mph 13.0 mph 81% 0.00 in
18:29 27.6 °F 22.5 °F 30.13 in NE 7.0 mph 15.0 mph 81% 0.00 in
18:34 27.5 °F 22.4 °F 30.14 in NE 7.0 mph 16.0 mph 81% 0.00 in
18:39 27.4 °F 22.3 °F 30.13 in NE 8.0 mph 16.0 mph 81% 0.00 in
18:44 27.3 °F 22.5 °F 30.13 in ENE 12.0 mph 18.0 mph 82% 0.00 in
18:49 27.2 °F 22.4 °F 30.13 in NE 5.0 mph 17.0 mph 82% 0.00 in
18:54 27.1 °F 22.3 °F 30.14 in NNE 8.0 mph 15.0 mph 82% 0.00 in
18:59 27.0 °F 22.2 °F 30.13 in NE 9.0 mph 18.0 mph 82% 0.00 in
19:04 26.9 °F 22.4 °F 30.13 in NE 10.0 mph 18.0 mph 83% 0.00 in
19:09 26.9 °F 22.4 °F 30.13 in NE 9.0 mph 15.0 mph 83% 0.00 in
19:14 26.9 °F 22.4 °F 30.13 in NE 9.0 mph 16.0 mph 83% 0.00 in
19:19 26.9 °F 22.4 °F 30.13 in NE 4.0 mph 15.0 mph 83% 0.00 in
19:24 26.9 °F 22.4 °F 30.13 in NE 3.0 mph 14.0 mph 83% 0.00 in
19:29 27.0 °F 22.5 °F 30.13 in NE 5.0 mph 15.0 mph 83% 0.00 in
19:34 27.0 °F 22.5 °F 30.13 in NE 7.0 mph 15.0 mph 83% 0.00 in
19:39 27.0 °F 22.5 °F 30.13 in ENE 6.0 mph 14.0 mph 83% 0.00 in
19:44 27.0 °F 22.5 °F 30.13 in NE 7.0 mph 15.0 mph 83% 0.00 in
19:49 27.0 °F 22.5 °F 30.13 in NE 7.0 mph 15.0 mph 83% 0.00 in
19:54 26.9 °F 22.4 °F 30.13 in NE 6.0 mph 12.0 mph 83% 0.00 in
19:59 26.9 °F 22.7 °F 30.12 in NE 8.0 mph 13.0 mph 84% 0.00 in
20:04 26.9 °F 22.7 °F 30.12 in NE 7.0 mph 15.0 mph 84% 0.00 in
20:09 26.8 °F 22.6 °F 30.13 in NE 8.0 mph 15.0 mph 84% 0.00 in
20:14 26.8 °F 22.6 °F 30.12 in NE 7.0 mph 15.0 mph 84% 0.00 in
20:19 26.7 °F 22.5 °F 30.12 in NE 7.0 mph 14.0 mph 84% 0.00 in
20:24 26.6 °F 22.7 °F 30.12 in NE 6.0 mph 14.0 mph 85% 0.00 in
20:29 26.5 °F 22.6 °F 30.12 in NE 7.0 mph 11.0 mph 85% 0.00 in
20:34 26.5 °F 22.6 °F 30.12 in NE 6.0 mph 14.0 mph 85% 0.00 in
20:39 26.4 °F 22.5 °F 30.12 in NE 6.0 mph 14.0 mph 85% 0.00 in
20:44 26.3 °F 22.7 °F 30.12 in NE 6.0 mph 11.0 mph 86% 0.00 in
20:49 26.2 °F 22.6 °F 30.12 in North 6.0 mph 12.0 mph 86% 0.00 in
20:54 26.1 °F 22.5 °F 30.11 in NNE 4.0 mph 11.0 mph 86% 0.00 in
20:59 26.0 °F 22.7 °F 30.11 in ENE 7.0 mph 11.0 mph 87% 0.00 in
21:04 25.9 °F 22.6 °F 30.11 in NNE 4.0 mph 8.0 mph 87% 0.00 in
21:09 25.9 °F 22.6 °F 30.11 in NNE 4.0 mph 8.0 mph 87% 0.00 in
21:14 25.8 °F 22.5 °F 30.11 in NNE 4.0 mph 9.0 mph 87% 0.00 in
21:19 25.6 °F 22.3 °F 30.11 in NNE 5.0 mph 11.0 mph 87% 0.00 in
21:24 25.6 °F 22.5 °F 30.11 in NE 5.0 mph 11.0 mph 88% 0.00 in
21:29 25.5 °F 22.4 °F 30.11 in NNE 7.0 mph 10.0 mph 88% 0.00 in
21:34 25.4 °F 22.3 °F 30.11 in NNE 4.0 mph 10.0 mph 88% 0.00 in
21:39 25.4 °F 22.3 °F 30.11 in NNE 5.0 mph 10.0 mph 88% 0.00 in
21:44 25.3 °F 22.2 °F 30.11 in NNE 5.0 mph 11.0 mph 88% 0.00 in
21:49 25.2 °F 22.1 °F 30.11 in NNE 5.0 mph 11.0 mph 88% 0.00 in
21:54 25.1 °F 22.0 °F 30.11 in NE 7.0 mph 9.0 mph 88% 0.00 in
21:59 25.0 °F 21.9 °F 30.11 in NNE 4.0 mph 8.0 mph 88% 0.00 in
22:04 25.0 °F 21.9 °F 30.11 in NNE 5.0 mph 7.0 mph 88% 0.00 in
22:09 24.9 °F 21.8 °F 30.11 in NNE 3.0 mph 8.0 mph 88% 0.00 in
22:14 24.9 °F 21.8 °F 30.10 in NNE 6.0 mph 10.0 mph 88% 0.00 in
22:19 24.7 °F 21.9 °F 30.10 in NNE 6.0 mph 10.0 mph 89% 0.00 in
22:24 24.6 °F 21.6 °F 30.10 in NE 5.0 mph 12.0 mph 88% 0.00 in
22:29 24.5 °F 21.5 °F 30.10 in NNE 5.0 mph 12.0 mph 88% 0.00 in
22:34 24.3 °F 21.5 °F 30.10 in NNE 5.0 mph 10.0 mph 89% 0.00 in
22:39 24.2 °F 21.4 °F 30.10 in NNE 5.0 mph 10.0 mph 89% 0.00 in
22:44 24.1 °F 21.3 °F 30.10 in NE 3.0 mph 17.0 mph 89% 0.00 in
22:49 24.0 °F 21.2 °F 30.10 in North 9.0 mph 11.0 mph 89% 0.00 in
22:54 23.9 °F 21.1 °F 30.10 in NNE 5.0 mph 11.0 mph 89% 0.00 in
22:59 23.8 °F 21.0 °F 30.10 in NNE 6.0 mph 9.0 mph 89% 0.00 in
23:04 23.8 °F 21.0 °F 30.10 in NE 9.0 mph 10.0 mph 89% 0.00 in
23:09 23.6 °F 20.8 °F 30.10 in NE 7.0 mph 11.0 mph 89% 0.00 in
23:14 23.4 °F 20.6 °F 30.10 in NNE 5.0 mph 11.0 mph 89% 0.00 in
23:19 23.2 °F 20.4 °F 30.11 in NNE 5.0 mph 8.0 mph 89% 0.00 in
23:24 23.0 °F 20.2 °F 30.11 in NNE 6.0 mph 11.0 mph 89% 0.00 in
23:29 22.8 °F 20.0 °F 30.10 in NNE 6.0 mph 12.0 mph 89% 0.00 in
23:34 22.6 °F 19.8 °F 30.10 in NNE 6.0 mph 12.0 mph 89% 0.00 in
23:39 22.5 °F 19.7 °F 30.11 in NNE 6.0 mph 11.0 mph 89% 0.00 in
23:44 22.4 °F 19.6 °F 30.11 in NNE 6.0 mph 13.0 mph 89% 0.00 in
23:49 22.3 °F 19.6 °F 30.11 in NNE 6.0 mph 13.0 mph 89% 0.00 in
23:54 22.1 °F 19.4 °F 30.11 in NNE 5.0 mph 11.0 mph 89% 0.00 in
23:59 22.0 °F 19.3 °F 30.11 in NNW 4.0 mph 9.0 mph 89% 0.00 in
Buffalo, New York, USA
Compliments of Weather Underground - 2.5 mb